Time,TemperatureF,DewpointF,PressureIn,WindDirection,WindDirectionDegrees,WindSpeedMPH,WindSpeedGustMPH,Humidity,HourlyPrecipIn,Conditions,Clouds,dailyrainin,SoftwareType,DateUTC
2013-01-15 00:00:00,36.7,28.9,30.26,NNW,337,2.0,5.0,73,0.00,,,-99.99,WeatherLink 5.7,2013-01-15 05:00:00,
2013-01-15 00:10:00,36.4,29.2,30.26,NNW,337,2.0,5.0,75,0.01,,,-99.99,WeatherLink 5.7,2013-01-15 05:10:00,
2013-01-15 00:20:00,36.0,29.5,30.26,NNW,337,2.0,6.0,77,0.01,,,-99.99,WeatherLink 5.7,2013-01-15 05:20:00,
2013-01-15 00:30:00,35.7,29.5,30.25,North,0,0.0,1.0,78,0.02,,,-99.99,WeatherLink 5.7,2013-01-15 05:30:00,
2013-01-15 00:40:00,35.5,30.2,30.24,North,-999,0.0,1.0,81,0.05,,,-99.99,WeatherLink 5.7,2013-01-15 05:40:00,
2013-01-15 00:50:00,35.3,30.1,30.24,NW,315,1.0,3.0,81,0.06,,,-99.99,WeatherLink 5.7,2013-01-15 05:50:00,
2013-01-15 01:00:00,35.0,30.1,30.25,NW,315,1.0,3.0,82,0.07,,,-99.99,WeatherLink 5.7,2013-01-15 06:00:00,
2013-01-15 01:10:00,34.8,29.9,30.25,WNW,292,1.0,4.0,82,0.07,,,-99.99,WeatherLink 5.7,2013-01-15 06:10:00,
2013-01-15 01:20:00,34.6,29.7,30.24,NW,315,2.0,5.0,82,0.07,,,-99.99,WeatherLink 5.7,2013-01-15 06:20:00,
2013-01-15 01:30:00,34.5,29.3,30.23,NW,315,2.0,5.0,81,0.07,,,-99.99,WeatherLink 5.7,2013-01-15 06:30:00,
2013-01-15 01:40:00,34.3,29.1,30.26,WNW,292,2.0,7.0,81,0.05,,,-99.99,WeatherLink 5.7,2013-01-15 06:40:00,
2013-01-15 01:50:00,34.1,28.9,30.24,North,0,2.0,7.0,81,0.04,,,-99.99,WeatherLink 5.7,2013-01-15 06:50:00,
2013-01-15 02:00:00,34.0,29.4,30.25,NNW,337,1.0,4.0,83,0.04,,,-99.99,WeatherLink 5.7,2013-01-15 07:00:00,
2013-01-15 02:10:00,33.8,28.9,30.24,North,0,2.0,6.0,82,0.05,,,-99.99,WeatherLink 5.7,2013-01-15 07:10:00,
2013-01-15 02:20:00,33.6,29.0,30.25,NW,315,3.0,7.0,83,0.05,,,-99.99,WeatherLink 5.7,2013-01-15 07:20:00,
2013-01-15 02:30:00,33.5,28.9,30.22,NNE,22,1.0,3.0,83,0.04,,,-99.99,WeatherLink 5.7,2013-01-15 07:30:00,
2013-01-15 02:40:00,33.4,28.8,30.23,ENE,67,1.0,4.0,83,0.03,,,-99.99,WeatherLink 5.7,2013-01-15 07:40:00,
2013-01-15 02:50:00,33.4,28.8,30.22,North,0,1.0,2.0,83,0.03,,,-99.99,WeatherLink 5.7,2013-01-15 07:50:00,
2013-01-15 03:00:00,33.4,28.8,30.20,NW,315,1.0,4.0,83,0.02,,,-99.99,WeatherLink 5.7,2013-01-15 08:00:00,
2013-01-15 03:10:00,33.2,28.9,30.22,NW,315,0.0,2.0,84,0.00,,,-99.99,WeatherLink 5.7,2013-01-15 08:10:00,
2013-01-15 03:20:00,33.4,29.1,30.22,NW,315,0.0,2.0,84,0.00,,,-99.99,WeatherLink 5.7,2013-01-15 08:20:00,
2013-01-15 03:30:00,33.5,29.5,30.22,NW,315,1.0,2.0,85,0.00,,,-99.99,WeatherLink 5.7,2013-01-15 08:30:00,
2013-01-15 03:40:00,33.3,29.6,30.22,SSE,157,1.0,4.0,86,0.00,,,-99.99,WeatherLink 5.7,2013-01-15 08:40:00,
2013-01-15 03:50:00,33.3,29.3,30.24,NW,315,1.0,3.0,85,0.00,,,-99.99,WeatherLink 5.7,2013-01-15 08:50:00,
2013-01-15 04:00:00,33.5,29.8,30.23,NW,315,0.0,2.0,86,0.00,,,-99.99,WeatherLink 5.7,2013-01-15 09:00:00,
2013-01-15 04:10:00,33.5,29.5,30.22,NW,315,1.0,2.0,85,0.00,,,-99.99,WeatherLink 5.7,2013-01-15 09:10:00,
2013-01-15 04:20:00,33.4,29.1,30.23,NW,315,0.0,2.0,84,0.00,,,-99.99,WeatherLink 5.7,2013-01-15 09:20:00,
2013-01-15 04:30:00,33.5,28.9,30.23,NW,315,0.0,2.0,83,0.00,,,-99.99,WeatherLink 5.7,2013-01-15 09:30:00,
2013-01-15 04:40:00,33.6,28.7,30.23,NW,315,0.0,2.0,82,0.00,,,-99.99,WeatherLink 5.7,2013-01-15 09:40:00,
2013-01-15 04:50:00,33.6,29.0,30.23,NW,315,0.0,2.0,83,0.00,,,-99.99,WeatherLink 5.7,2013-01-15 09:50:00,
2013-01-15 05:00:00,33.6,29.0,30.22,NW,315,0.0,1.0,83,0.00,,,-99.99,WeatherLink 5.7,2013-01-15 10:00:00,
2013-01-15 05:10:00,33.6,29.0,30.23,NW,315,0.0,1.0,83,0.00,,,-99.99,WeatherLink 5.7,2013-01-15 10:10:00,
2013-01-15 05:20:00,33.6,29.0,30.24,NW,315,0.0,1.0,83,0.00,,,-99.99,WeatherLink 5.7,2013-01-15 10:20:00,
2013-01-15 05:30:00,33.6,29.0,30.23,NW,315,0.0,2.0,83,0.00,,,-99.99,WeatherLink 5.7,2013-01-15 10:30:00,
2013-01-15 05:40:00,33.5,28.6,30.24,NW,315,0.0,2.0,82,0.00,,,-99.99,WeatherLink 5.7,2013-01-15 10:40:00,
2013-01-15 05:50:00,33.6,29.0,30.25,NW,315,0.0,2.0,83,0.00,,,-99.99,WeatherLink 5.7,2013-01-15 10:50:00,
2013-01-15 06:00:00,33.6,28.7,30.26,NW,315,0.0,3.0,82,0.00,,,-99.99,WeatherLink 5.7,2013-01-15 11:00:00,
2013-01-15 06:10:00,33.6,28.4,30.25,NW,315,0.0,2.0,81,0.00,,,-99.99,WeatherLink 5.7,2013-01-15 11:10:00,
2013-01-15 06:20:00,33.7,28.8,30.26,NW,315,0.0,1.0,82,0.00,,,-99.99,WeatherLink 5.7,2013-01-15 11:20:00,
2013-01-15 06:30:00,33.7,28.8,30.26,NW,315,0.0,1.0,82,0.00,,,-99.99,WeatherLink 5.7,2013-01-15 11:30:00,
2013-01-15 06:42:00,33.7,28.5,30.27,WNW,292,1.0,4.0,81,0.00,,,-99.99,WeatherLink 5.7,2013-01-15 11:42:00,
2013-01-15 06:51:00,33.6,28.4,30.26,WNW,292,1.0,3.0,81,0.00,,,-99.99,WeatherLink 5.7,2013-01-15 11:51:00,
2013-01-15 07:01:00,33.6,28.4,30.27,NNW,337,0.0,2.0,81,0.00,,,-99.99,WeatherLink 5.7,2013-01-15 12:01:00,
2013-01-15 07:11:00,33.5,28.3,30.28,NW,315,0.0,2.0,81,0.00,,,-99.99,WeatherLink 5.7,2013-01-15 12:11:00,
2013-01-15 07:20:00,33.5,28.3,30.28,North,-999,0.0,0.0,81,0.00,,,-99.99,WeatherLink 5.7,2013-01-15 12:20:00,
2013-01-15 07:30:00,33.6,28.7,30.29,NW,315,0.0,1.0,82,0.00,,,-99.99,WeatherLink 5.7,2013-01-15 12:30:00,
2013-01-15 07:40:00,33.6,28.7,30.29,NW,315,0.0,2.0,82,0.00,,,-99.99,WeatherLink 5.7,2013-01-15 12:40:00,
2013-01-15 07:50:00,33.6,28.7,30.29,NW,315,1.0,3.0,82,0.00,,,-99.99,WeatherLink 5.7,2013-01-15 12:50:00,
2013-01-15 08:00:00,33.6,28.7,30.30,NW,315,0.0,2.0,82,0.00,,,-99.99,WeatherLink 5.7,2013-01-15 13:00:00,
2013-01-15 08:10:00,33.6,28.7,30.30,NW,315,0.0,2.0,82,0.00,,,-99.99,WeatherLink 5.7,2013-01-15 13:10:00,
2013-01-15 08:20:00,33.7,28.5,30.31,NW,315,1.0,3.0,81,0.00,,,-99.99,WeatherLink 5.7,2013-01-15 13:20:00,
2013-01-15 08:30:00,33.7,28.2,30.32,NW,315,1.0,4.0,80,0.00,,,-99.99,WeatherLink 5.7,2013-01-15 13:30:00,
2013-01-15 08:40:00,33.6,28.1,30.32,NW,315,1.0,3.0,80,0.00,,,-99.99,WeatherLink 5.7,2013-01-15 13:40:00,
2013-01-15 08:52:00,33.8,28.0,30.32,NW,315,1.0,3.0,79,0.01,,,-99.99,WeatherLink 5.7,2013-01-15 13:52:00,
2013-01-15 09:01:00,33.9,28.1,30.32,North,0,1.0,5.0,79,0.01,,,-99.99,WeatherLink 5.7,2013-01-15 14:01:00,
2013-01-15 09:11:00,33.9,28.1,30.32,NW,315,1.0,3.0,79,0.01,,,-99.99,WeatherLink 5.7,2013-01-15 14:11:00,
2013-01-15 09:21:00,34.0,27.9,30.32,North,0,1.0,4.0,78,0.01,,,-99.99,WeatherLink 5.7,2013-01-15 14:21:00,
2013-01-15 09:31:00,34.1,28.0,30.32,NNW,337,1.0,4.0,78,0.01,,,-99.99,WeatherLink 5.7,2013-01-15 14:31:00,
2013-01-15 09:41:00,34.3,27.8,30.32,NW,315,1.0,5.0,77,0.01,,,-99.99,WeatherLink 5.7,2013-01-15 14:41:00,
2013-01-15 09:51:00,34.4,27.9,30.32,NW,315,1.0,3.0,77,0.00,,,-99.99,WeatherLink 5.7,2013-01-15 14:51:00,
2013-01-15 10:01:00,34.5,27.7,30.32,NNW,337,1.0,3.0,76,0.00,,,-99.99,WeatherLink 5.7,2013-01-15 15:01:00,
2013-01-15 10:11:00,34.4,27.3,30.32,NW,315,1.0,3.0,75,0.00,,,-99.99,WeatherLink 5.7,2013-01-15 15:11:00,
2013-01-15 10:21:00,34.3,27.2,30.32,WNW,292,1.0,3.0,75,0.00,,,-99.99,WeatherLink 5.7,2013-01-15 15:21:00,
2013-01-15 10:31:00,34.3,27.2,30.33,NW,315,0.0,2.0,75,0.00,,,-99.99,WeatherLink 5.7,2013-01-15 15:31:00,
2013-01-15 10:41:00,34.4,27.3,30.33,NNW,337,0.0,3.0,75,0.00,,,-99.99,WeatherLink 5.7,2013-01-15 15:41:00,
2013-01-15 10:51:00,34.5,27.1,30.32,NNW,337,1.0,5.0,74,0.00,,,-99.99,WeatherLink 5.7,2013-01-15 15:51:00,
2013-01-15 11:01:00,34.5,27.4,30.32,NW,315,2.0,4.0,75,0.00,,,-99.99,WeatherLink 5.7,2013-01-15 16:01:00,
2013-01-15 11:11:00,34.6,27.2,30.32,NW,315,2.0,4.0,74,0.00,,,-99.99,WeatherLink 5.7,2013-01-15 16:11:00,
2013-01-15 11:21:00,34.8,27.7,30.31,North,0,1.0,4.0,75,0.00,,,-99.99,WeatherLink 5.7,2013-01-15 16:21:00,
2013-01-15 11:31:00,35.2,27.1,30.31,NNW,337,2.0,5.0,72,0.00,,,-99.99,WeatherLink 5.7,2013-01-15 16:31:00,
2013-01-15 11:41:00,35.2,27.4,30.30,NW,315,1.0,4.0,73,0.00,,,-99.99,WeatherLink 5.7,2013-01-15 16:41:00,
2013-01-15 11:51:00,35.4,27.3,30.31,NW,315,1.0,4.0,72,0.00,,,-99.99,WeatherLink 5.7,2013-01-15 16:51:00,
2013-01-15 12:01:00,35.3,27.2,30.29,NW,315,2.0,6.0,72,0.00,,,-99.99,WeatherLink 5.7,2013-01-15 17:01:00,
2013-01-15 12:11:00,35.2,27.4,30.29,WNW,292,1.0,5.0,73,0.00,,,-99.99,WeatherLink 5.7,2013-01-15 17:11:00,
2013-01-15 12:21:00,35.4,27.3,30.27,NW,315,1.0,4.0,72,0.00,,,-99.99,WeatherLink 5.7,2013-01-15 17:21:00,
2013-01-15 12:31:00,35.4,27.6,30.27,WNW,292,1.0,4.0,73,0.00,,,-99.99,WeatherLink 5.7,2013-01-15 17:31:00,
2013-01-15 12:41:00,35.5,27.4,30.26,NW,315,1.0,4.0,72,0.00,,,-99.99,WeatherLink 5.7,2013-01-15 17:41:00,
2013-01-15 12:51:00,35.7,27.6,30.26,NW,315,2.0,5.0,72,0.00,,,-99.99,WeatherLink 5.7,2013-01-15 17:51:00,
2013-01-15 13:01:00,35.6,27.5,30.26,NW,315,2.0,5.0,72,0.00,,,-99.99,WeatherLink 5.7,2013-01-15 18:01:00,
2013-01-15 13:11:00,35.6,27.1,30.25,NW,315,2.0,5.0,71,0.00,,,-99.99,WeatherLink 5.7,2013-01-15 18:11:00,
2013-01-15 13:21:00,35.7,27.2,30.25,NW,315,1.0,5.0,71,0.00,,,-99.99,WeatherLink 5.7,2013-01-15 18:21:00,
2013-01-15 13:31:00,35.9,27.1,30.25,NW,315,1.0,4.0,70,0.00,,,-99.99,WeatherLink 5.7,2013-01-15 18:31:00,
2013-01-15 13:41:00,35.8,27.3,30.25,NW,315,2.0,4.0,71,0.00,,,-99.99,WeatherLink 5.7,2013-01-15 18:41:00,
2013-01-15 13:51:00,35.7,27.2,30.25,NW,315,2.0,4.0,71,0.00,,,-99.99,WeatherLink 5.7,2013-01-15 18:51:00,
2013-01-15 14:01:00,35.8,27.0,30.25,NNW,337,1.0,3.0,70,0.00,,,-99.99,WeatherLink 5.7,2013-01-15 19:01:00,
2013-01-15 14:11:00,36.0,27.2,30.25,NNE,22,0.0,2.0,70,0.00,,,-99.99,WeatherLink 5.7,2013-01-15 19:11:00,
2013-01-15 14:21:00,36.2,27.4,30.24,NW,315,1.0,4.0,70,0.00,,,-99.99,WeatherLink 5.7,2013-01-15 19:21:00,
2013-01-15 14:31:00,36.2,27.4,30.24,North,0,0.0,3.0,70,0.00,,,-99.99,WeatherLink 5.7,2013-01-15 19:31:00,
2013-01-15 14:41:00,36.1,26.9,30.25,NNW,337,1.0,3.0,69,0.00,,,-99.99,WeatherLink 5.7,2013-01-15 19:41:00,
2013-01-15 14:51:00,36.0,26.8,30.24,WNW,292,1.0,4.0,69,0.00,,,-99.99,WeatherLink 5.7,2013-01-15 19:51:00,
2013-01-15 15:01:00,35.8,26.6,30.24,NW,315,1.0,5.0,69,0.00,,,-99.99,WeatherLink 5.7,2013-01-15 20:01:00,
2013-01-15 15:11:00,35.9,27.1,30.24,NW,315,0.0,3.0,70,0.00,,,-99.99,WeatherLink 5.7,2013-01-15 20:11:00,
2013-01-15 15:21:00,36.1,27.3,30.25,NW,315,0.0,3.0,70,0.00,,,-99.99,WeatherLink 5.7,2013-01-15 20:21:00,
2013-01-15 15:31:00,36.1,26.9,30.25,NW,315,1.0,3.0,69,0.00,,,-99.99,WeatherLink 5.7,2013-01-15 20:31:00,
2013-01-15 15:41:00,36.0,26.8,30.26,NW,315,2.0,4.0,69,0.00,,,-99.99,WeatherLink 5.7,2013-01-15 20:41:00,
2013-01-15 15:51:00,35.8,26.3,30.26,NW,315,1.0,5.0,68,0.00,,,-99.99,WeatherLink 5.7,2013-01-15 20:51:00,
2013-01-15 16:01:00,35.6,26.1,30.26,NW,315,2.0,6.0,68,0.00,,,-99.99,WeatherLink 5.7,2013-01-15 21:01:00,
2013-01-15 16:11:00,35.3,25.8,30.25,North,0,1.0,4.0,68,0.00,,,-99.99,WeatherLink 5.7,2013-01-15 21:11:00,
2013-01-15 16:21:00,35.1,25.6,30.25,NNW,337,1.0,3.0,68,0.00,,,-99.99,WeatherLink 5.7,2013-01-15 21:21:00,
2013-01-15 16:31:00,35.0,25.5,30.26,WNW,292,1.0,5.0,68,0.00,,,-99.99,WeatherLink 5.7,2013-01-15 21:31:00,
2013-01-15 16:41:00,34.8,25.3,30.26,WNW,292,0.0,2.0,68,0.00,,,-99.99,WeatherLink 5.7,2013-01-15 21:41:00,
2013-01-15 16:51:00,34.8,25.3,30.26,NNW,337,0.0,3.0,68,0.00,,,-99.99,WeatherLink 5.7,2013-01-15 21:51:00,
2013-01-15 17:01:00,34.9,25.4,30.26,NNW,337,0.0,1.0,68,0.00,,,-99.99,WeatherLink 5.7,2013-01-15 22:01:00,
2013-01-15 17:11:00,34.9,25.8,30.27,NNW,337,0.0,1.0,69,0.00,,,-99.99,WeatherLink 5.7,2013-01-15 22:11:00,
2013-01-15 17:21:00,34.9,25.8,30.24,North,0,0.0,2.0,69,0.00,,,-99.99,WeatherLink 5.7,2013-01-15 22:21:00,
2013-01-15 17:31:00,34.8,25.7,30.24,North,-999,0.0,1.0,69,0.00,,,-99.99,WeatherLink 5.7,2013-01-15 22:31:00,
2013-01-15 17:41:00,34.7,25.6,30.24,North,0,0.0,2.0,69,0.00,,,-99.99,WeatherLink 5.7,2013-01-15 22:41:00,
2013-01-15 17:51:00,34.7,25.6,30.25,North,0,0.0,2.0,69,0.00,,,-99.99,WeatherLink 5.7,2013-01-15 22:51:00,
2013-01-15 18:01:00,34.8,26.0,30.25,North,0,0.0,3.0,70,0.00,,,-99.99,WeatherLink 5.7,2013-01-15 23:01:00,
2013-01-15 18:11:00,34.7,25.9,30.24,North,0,0.0,1.0,70,0.00,,,-99.99,WeatherLink 5.7,2013-01-15 23:11:00,
2013-01-15 18:21:00,34.7,25.6,30.25,North,0,0.0,2.0,69,0.00,,,-99.99,WeatherLink 5.7,2013-01-15 23:21:00,
2013-01-15 18:31:00,34.6,25.5,30.26,NW,315,1.0,3.0,69,0.00,,,-99.99,WeatherLink 5.7,2013-01-15 23:31:00,
2013-01-15 18:41:00,34.6,25.8,30.27,NW,315,0.0,2.0,70,0.00,,,-99.99,WeatherLink 5.7,2013-01-15 23:41:00,
2013-01-15 18:51:00,34.6,25.5,30.26,North,-999,0.0,1.0,69,0.00,,,-99.99,WeatherLink 5.7,2013-01-15 23:51:00,
2013-01-15 19:01:00,34.7,25.6,30.27,NW,315,0.0,2.0,69,0.00,,,-99.99,WeatherLink 5.7,2013-01-16 00:01:00,
2013-01-15 19:11:00,34.7,25.6,30.26,NW,315,0.0,2.0,69,0.00,,,-99.99,WeatherLink 5.7,2013-01-16 00:11:00,
2013-01-15 19:21:00,34.6,25.5,30.25,North,-999,0.0,1.0,69,0.00,,,-99.99,WeatherLink 5.7,2013-01-16 00:21:00,
2013-01-15 19:31:00,34.5,25.7,30.24,NW,315,0.0,1.0,70,0.00,,,-99.99,WeatherLink 5.7,2013-01-16 00:31:00,
2013-01-15 19:41:00,34.5,25.7,30.25,NW,315,0.0,2.0,70,0.00,,,-99.99,WeatherLink 5.7,2013-01-16 00:41:00,
2013-01-15 19:51:00,34.4,24.9,30.24,NW,315,0.0,1.0,68,0.00,,,-99.99,WeatherLink 5.7,2013-01-16 00:51:00,
2013-01-15 20:01:00,34.4,24.9,30.24,South,180,0.0,1.0,68,0.00,,,-99.99,WeatherLink 5.7,2013-01-16 01:01:00,
2013-01-15 20:11:00,34.3,25.5,30.23,North,-999,0.0,0.0,70,0.00,,,-99.99,WeatherLink 5.7,2013-01-16 01:11:00,
2013-01-15 20:21:00,34.4,25.6,30.24,North,-999,0.0,0.0,70,0.00,,,-99.99,WeatherLink 5.7,2013-01-16 01:21:00,
2013-01-15 20:31:00,34.5,26.1,30.25,North,-999,0.0,0.0,71,0.00,,,-99.99,WeatherLink 5.7,2013-01-16 01:31:00,
2013-01-15 20:41:00,34.6,26.2,30.25,North,-999,0.0,0.0,71,0.00,,,-99.99,WeatherLink 5.7,2013-01-16 01:41:00,
2013-01-15 20:51:00,34.6,26.2,30.24,North,-999,0.0,0.0,71,0.00,,,-99.99,WeatherLink 5.7,2013-01-16 01:51:00,
2013-01-15 21:01:00,34.6,25.8,30.23,North,-999,0.0,0.0,70,0.00,,,-99.99,WeatherLink 5.7,2013-01-16 02:01:00,
2013-01-15 21:11:00,34.6,26.2,30.23,South,180,0.0,1.0,71,0.00,,,-99.99,WeatherLink 5.7,2013-01-16 02:11:00,
2013-01-15 21:21:00,34.5,26.1,30.22,South,180,0.0,1.0,71,0.00,,,-99.99,WeatherLink 5.7,2013-01-16 02:21:00,
2013-01-15 21:31:00,34.3,25.9,30.22,South,180,0.0,2.0,71,0.00,,,-99.99,WeatherLink 5.7,2013-01-16 02:31:00,
2013-01-15 21:41:00,34.2,25.8,30.22,South,180,0.0,1.0,71,0.00,,,-99.99,WeatherLink 5.7,2013-01-16 02:41:00,
2013-01-15 21:51:00,34.3,25.5,30.22,South,180,0.0,1.0,70,0.00,,,-99.99,WeatherLink 5.7,2013-01-16 02:51:00,
2013-01-15 22:01:00,34.3,26.2,30.22,North,-999,0.0,1.0,72,0.00,,,-99.99,WeatherLink 5.7,2013-01-16 03:01:00,
2013-01-15 22:11:00,34.2,26.8,30.21,South,180,0.0,1.0,74,0.00,,,-99.99,WeatherLink 5.7,2013-01-16 03:11:00,
2013-01-15 22:21:00,34.1,27.0,30.21,North,-999,0.0,0.0,75,0.00,,,-99.99,WeatherLink 5.7,2013-01-16 03:21:00,
2013-01-15 22:31:00,33.9,27.1,30.21,North,-999,0.0,0.0,76,0.00,,,-99.99,WeatherLink 5.7,2013-01-16 03:31:00,
2013-01-15 22:41:00,33.8,27.4,30.21,North,-999,0.0,0.0,77,0.00,,,-99.99,WeatherLink 5.7,2013-01-16 03:41:00,
2013-01-15 22:51:00,33.7,27.3,30.21,North,-999,0.0,0.0,77,0.00,,,-99.99,WeatherLink 5.7,2013-01-16 03:51:00,
2013-01-15 23:01:00,33.5,27.1,30.22,North,-999,0.0,0.0,77,0.00,,,-99.99,WeatherLink 5.7,2013-01-16 04:01:00,
2013-01-15 23:11:00,33.3,26.9,30.21,South,180,0.0,1.0,77,0.00,,,-99.99,WeatherLink 5.7,2013-01-16 04:11:00,
2013-01-15 23:21:00,33.0,26.9,30.20,South,180,0.0,1.0,78,0.00,,,-99.99,WeatherLink 5.7,2013-01-16 04:21:00,
2013-01-15 23:31:00,33.0,26.9,30.20,North,-999,0.0,0.0,78,0.00,,,-99.99,WeatherLink 5.7,2013-01-16 04:31:00,
2013-01-15 23:41:00,32.9,27.1,30.19,North,-999,0.0,1.0,79,0.00,,,-99.99,WeatherLink 5.7,2013-01-16 04:41:00,
2013-01-15 23:51:00,32.8,27.3,30.19,South,180,0.0,2.0,80,0.00,,,-99.99,WeatherLink 5.7,2013-01-16 04:51:00,